[[{"header":{"parameterUnit":"m.s-1","parameterCategory":1,"la1":30.2992,"la2":30.254,"lo1":-89.0895,"lo2":-89.0443,"dy":0.0025,"dx":0.0025,"nx":19,"ny":19,"refTime":"2026-05-09T09:00:00:Z","depth":0,"parameterNumber":2,"parameterNumberName":"U-component_of_WINDS"},"data":[0,0,0,0.2284,0.228,0.2083,0.2082,0.1846,0.1844,0,0,0,0,0,0,0,0,0,0,0,0.2356,0.2355,0.2284,0.228,0.2083,0.2082,0.1846,0.1844,0,0,0,0,0,0,0,0,0,0,0,0.2357,0.2356,0.2354,0.2279,0.2083,0.2082,0.1847,0.1988,0,0,0,0,0,0,0,0,0,0,0.2176,0.2259,0.2356,0.2354,0.2278,0.2083,0.2082,0.1995,0.198,0.1943,0,0.1919,0,0.1878,0.183,0.1829,0,0,0,0.2267,0.2272,0.2206,0.2354,0.2276,0.2084,0.2168,0.1986,0.1969,0.1923,0.1916,0.1906,0.1874,0.1828,0.1827,0.1668,0.1668,0,0,0.2278,0.2328,0.2218,0.2196,0.2233,0.2175,0.2162,0.1975,0.1969,0.1915,0.19,0.1871,0.1827,0.1825,0.1669,0.1668,0,0,0,0.2318,0.2336,0.2274,0.2206,0.217,0.2169,0.2155,0.1977,0.1953,0.1898,0.1868,0.1826,0.1823,0.1669,0.1669,0.1709,0,0,0,0.2324,0.2359,0.228,0.2308,0.2174,0.2072,0.2161,0.1966,0.1943,0.1869,0.1826,0.1821,0.1669,0.1669,0.1708,0.1719,0,0,0,0.2364,0.2363,0.234,0.2311,0.2228,0.2074,0.2039,0.196,0.1926,0.1829,0.182,0.1669,0.1669,0.1708,0.1718,0.1692,0,0,0,0.242,0.2377,0.2342,0.2281,0.223,0.2102,0.2039,0.194,0.1862,0.1824,0.1669,0.1669,0.1707,0.1717,0.1692,0.1679,0.1679,0,0,0.2393,0.2376,0.2336,0.2298,0.219,0.2128,0.2022,0.1902,0.1845,0.1729,0.1725,0.1709,0.1718,0.1692,0.1661,0.1661,0,0,0,0.2344,0.2316,0.2276,0.2206,0.2116,0.2038,0.193,0.1884,0.1784,0.1798,0.1691,0.1694,0.1677,0.1669,0.1669,0.165,0.1667,0.1667,0.1667,0.2375,0.2308,0.2237,0.2146,0.2079,0.1967,0.1905,0.1824,0.1774,0.175,0.1715,0.1705,0.1697,0.1697,0.1678,0.1703,0.1703,0.1703,0.1703,0.2328,0.2277,0.2214,0.2123,0.205,0.1971,0.186,0.1828,0.1741,0.1726,0.1707,0.1696,0.1699,0.1679,0.1706,0.1705,0.1705,0.1705,0.1705,0.2341,0.2305,0.2253,0.2145,0.2068,0.1975,0.1895,0.1831,0.1769,0.1751,0.1706,0.1705,0.1695,0.1734,0.1734,0.1734,0.1734,0.1734,0.1734,0.2375,0.2315,0.2258,0.2159,0.2105,0.2025,0.1912,0.1855,0.1775,0.1734,0.1734,0.1685,0.1713,0.1722,0.1733,0.1733,0.1733,0.1733,0.1733,0.2352,0.2347,0.2259,0.2206,0.2082,0.2009,0.1928,0.1818,0.1762,0.1724,0.1678,0.171,0.1686,0.1686,0.1692,0.1695,0.1695,0.1695,0.1695,0.2362,0.2345,0.2241,0.2159,0.2071,0.1989,0.1887,0.1797,0.1703,0.1663,0.1653,0.1655,0.1658,0.1632,0.1632,0.1637,0.1626,0.1626,0.1626,0.2344,0.2315,0.2244,0.2156,0.2054,0.1966,0.1868,0.1773,0.1664,0.1622,0.1629,0.1632,0.1636,0.1641,0.16,0.1602,0.161,0,0]},{"header":{"parameterUnit":"m.s-1","parameterCategory":1,"la1":30.2992,"la2":30.254,"lo1":-89.0895,"lo2":-89.0443,"dy":0.0025,"dx":0.0025,"nx":19,"ny":19,"refTime":"2026-05-09T09:00:00:Z","depth":0,"parameterNumber":3,"parameterNumberName":"V-component_of_WINDS"},"data":[0,0,0,1.6503,1.6503,1.6481,1.6481,1.648,1.648,0,0,0,0,0,0,0,0,0,0,0,1.6525,1.6526,1.6503,1.6502,1.6481,1.6481,1.648,1.648,0,0,0,0,0,0,0,0,0,0,0,1.6525,1.6526,1.6526,1.6502,1.6481,1.6481,1.648,1.6486,0,0,0,0,0,0,0,0,0,0,1.6502,1.654,1.6525,1.6526,1.6502,1.6482,1.6481,1.6486,1.6486,1.6501,0,1.6519,0,1.65,1.6482,1.6482,0,0,0,1.649,1.654,1.6519,1.6526,1.6502,1.6482,1.6487,1.6486,1.6486,1.6501,1.6519,1.6518,1.65,1.6482,1.6482,1.6609,1.661,0,0,1.6491,1.653,1.652,1.652,1.6526,1.6488,1.6487,1.6485,1.6507,1.6519,1.6517,1.65,1.6482,1.6482,1.6608,1.6609,0,0,0,1.6503,1.6532,1.651,1.6521,1.6515,1.6488,1.6486,1.6507,1.6497,1.6517,1.65,1.6482,1.6483,1.6606,1.6608,1.6704,0,0,0,1.6503,1.6538,1.6512,1.6535,1.6516,1.6511,1.6509,1.6497,1.6496,1.65,1.6482,1.6483,1.6605,1.6607,1.6699,1.6743,0,0,0,1.6521,1.654,1.6543,1.6537,1.653,1.651,1.65,1.6496,1.6486,1.6482,1.6483,1.6604,1.6607,1.6694,1.6735,1.6787,0,0,0,1.6551,1.6629,1.6545,1.6624,1.653,1.657,1.6499,1.6527,1.6535,1.6482,1.6605,1.6608,1.6692,1.673,1.6783,1.6839,1.6866,0,0,1.667,1.6644,1.6688,1.6612,1.6677,1.657,1.6648,1.6618,1.6582,1.6602,1.6604,1.67,1.6734,1.6786,1.7005,1.7027,0,0,0,1.6739,1.677,1.6779,1.6788,1.6768,1.6753,1.6707,1.6696,1.6711,1.6601,1.6732,1.6751,1.678,1.6805,1.6824,1.6846,1.6621,1.6621,1.6621,1.6964,1.6913,1.6981,1.6928,1.6938,1.6889,1.6892,1.6868,1.6815,1.6847,1.6853,1.6991,1.7022,1.7036,1.706,1.6878,1.6878,1.6879,1.6879,1.7133,1.717,1.7096,1.7136,1.7081,1.7114,1.7069,1.703,1.7052,1.6983,1.7006,1.6935,1.7062,1.708,1.6886,1.6884,1.6884,1.6883,1.6882,1.7275,1.7284,1.7268,1.7276,1.7287,1.723,1.7254,1.7204,1.7156,1.7179,1.7179,1.7178,1.7169,1.7183,1.7183,1.7184,1.7184,1.7184,1.7185,1.7428,1.7408,1.7435,1.7418,1.7417,1.7409,1.736,1.7357,1.7341,1.7302,1.7302,1.7245,1.7083,1.7044,1.7192,1.7191,1.719,1.7189,1.7188,1.7619,1.7568,1.761,1.7609,1.7584,1.7599,1.7533,1.7532,1.7522,1.7535,1.7473,1.7361,1.7331,1.7316,1.7283,1.7484,1.7484,1.7484,1.7484,1.7739,1.7718,1.7749,1.7751,1.7746,1.7691,1.7739,1.7701,1.7654,1.7645,1.7608,1.756,1.7546,1.7524,1.7504,1.7472,1.7717,1.7717,1.7718,1.7854,1.783,1.7881,1.7835,1.7812,1.7793,1.7836,1.784,1.7776,1.7726,1.7636,1.7626,1.7548,1.7525,1.7474,1.7445,1.7385,0,0]}]]